Terminal Aerodrome Forecast
Issued by NWS

Home | Current Version | Previous Version | Text Only | Print | Product List | Glossary On
Versions: 1 2 3 4 5 6 7 8 9 10 11 12 13 14 15 16 17 18 19 20 21 22 23 24 25 26
000
FTUS41 KBUF 260300 AAA
TAFJHW
TAF AMD
KJHW 260327Z 2603/2624 VRB03KT P6SM SKC
     FM260600 18004KT P6SM BKN120
     FM261500 22007KT P6SM BKN070
     FM262300 22007KT P6SM VCSH BKN050
      AMD LTD TO CLD VIS AND WIND=

USA.gov is the U.S. government's official web portal to all federal, state and local government web resources and services.